GLO1040 SBRJ-SBSP

Flight info

Callsign GLO1040
Flight time N/A
Altitude 32000
Route NAXOP UZ45 IBDAL
Aircraft B738/M-SDE2E3FGHIRWXY/LB1

Departure

Time 2026-05-03 22:31
Airport Santos Dumont Airport (SBRJ)

Arrival

Time N/A
Airport Congonhas–Deputado Freitas Nobre Airport (SBSP)
Time Latitude Longitude Altitude Speed Heading
2026-05-03 22:10 -22.91200 -43.16587 22 ft 0 kts 266°
2026-05-03 22:24 -22.91200 -43.16582 22 ft 2 kts 266°
2026-05-03 22:24 -22.91199 -43.16566 22 ft 2 kts 266°
2026-05-03 22:24 -22.91198 -43.16555 22 ft 2 kts 260°
2026-05-03 22:25 -22.91192 -43.16540 22 ft 2 kts 232°
2026-05-03 22:25 -22.91181 -43.16529 22 ft 2 kts 210°
2026-05-03 22:25 -22.91167 -43.16523 22 ft 2 kts 187°
2026-05-03 22:25 -22.91159 -43.16523 22 ft 1 kts 173°
2026-05-03 22:26 -22.91155 -43.16523 22 ft 0 kts 176°
2026-05-03 22:28 -22.91188 -43.16521 22 ft 11 kts 176°
2026-05-03 22:28 -22.91311 -43.16514 22 ft 19 kts 178°
2026-05-03 22:28 -22.91424 -43.16481 22 ft 15 kts 138°
2026-05-03 22:29 -22.91494 -43.16411 22 ft 12 kts 135°
2026-05-03 22:29 -22.91546 -43.16356 22 ft 7 kts 135°
2026-05-03 22:29 -22.91582 -43.16318 22 ft 9 kts 135°
2026-05-03 22:29 -22.91629 -43.16268 22 ft 6 kts 138°
2026-05-03 22:30 -22.91627 -43.16256 22 ft 1 kts 15°
2026-05-03 22:30 -22.91617 -43.16256 22 ft 0 kts
2026-05-03 22:30 -22.91533 -43.16254 22 ft 46 kts 356°
2026-05-03 22:30 -22.91033 -43.16295 23 ft 117 kts 356°
2026-05-03 22:31 -22.89438 -43.16417 612 ft 166 kts 356°
2026-05-03 22:31 -22.89238 -43.16424 736 ft 168 kts 360°